Theta_e
321 321 320 324 325 327 336 344 343 343 344 342 342 342 341 342 341 341 341 340 334 332 326 331 331 331 330 329 328 329 331 335 337 337 337 336 337 335 335 334 333 331 331
321 323 324 324 324 325 333 342 345 345 344 343 342 343 342 342 341 341 341 341 339 336 329 327 331 330 331 329 329 329 331 335 337 337 338 338 336 336 335 334 333 333 334
320 321 322 323 325 325 332 340 344 345 344 344 344 342 342 342 342 342 342 341 340 338 333 324 331 331 329 329 328 325 328 334 336 337 338 338 337 335 334 333 334 334 333
316 319 321 322 325 327 334 341 343 344 345 343 344 343 342 342 342 342 342 341 339 341 339 334 326 333 328 329 327 327 323 331 334 337 339 338 337 337 330 329 332 333 333
314 315 317 322 322 325 337 341 343 344 345 344 344 343 343 342 342 343 341 340 339 341 341 340 335 331 331 326 329 331 329 327 332 336 337 338 338 340 337 330 328 330 331
316 316 316 318 322 324 335 342 343 344 345 345 344 345 344 343 342 342 340 339 337 341 340 340 338 334 330 326 327 328 329 328 327 334 337 337 337 338 336 335 329 329 330
314 317 317 317 320 322 329 341 343 343 345 346 345 344 344 343 342 341 340 340 337 337 341 338 338 338 334 328 327 330 330 328 331 328 338 337 337 337 336 335 332 327 323
318 315 316 318 318 321 323 335 340 343 343 345 345 344 344 344 341 340 340 338 338 332 340 335 331 333 335 334 330 330 329 331 328 332 330 338 337 337 336 335 334 328 321
314 317 320 317 318 319 321 323 336 341 342 344 346 345 343 344 343 341 339 339 338 336 333 331 329 330 333 333 333 330 331 332 333 328 332 331 337 337 337 336 336 332 325
312 315 317 320 318 319 321 323 328 337 341 343 345 345 344 344 342 341 341 340 338 338 338 336 333 330 329 332 334 332 330 330 330 332 329 332 331 336 337 338 337 335 331
309 312 314 321 320 319 320 322 324 333 339 341 344 345 344 344 344 343 341 340 339 340 339 338 339 339 336 333 333 331 332 331 330 332 333 330 332 337 338 338 338 336 333
308 311 314 321 321 321 320 321 324 324 336 340 342 344 342 344 345 341 342 341 340 339 339 340 340 340 340 339 336 334 332 332 331 329 334 332 335 336 338 339 339 338 335
306 309 313 320 320 320 322 325 323 323 332 336 341 343 344 344 342 337 338 342 341 340 340 341 341 341 340 341 341 340 337 335 332 332 333 331 335 336 337 338 339 338 336
306 307 309 315 319 321 322 323 326 326 324 333 341 343 342 339 337 337 340 339 341 341 341 341 342 342 342 342 341 341 340 340 338 336 334 334 335 334 334 338 339 338 336
303 304 306 309 313 316 318 319 323 327 330 327 328 343 343 340 341 344 344 341 340 343 342 343 342 344 344 344 344 343 342 341 341 340 338 337 337 336 336 335 337 337 336
304 303 304 305 307 309 312 312 315 319 326 328 330 331 342 343 345 345 345 344 343 341 340 338 341 343 343 343 343 343 343 343 343 343 342 341 340 339 339 339 338 337 337
305 304 304 303 304 305 308 309 309 312 320 325 325 328 331 337 343 344 344 345 344 343 340 341 342 343 343 342 342 342 343 343 343 342 341 340 340 339 340 341 339 338 338
307 306 304 304 303 303 306 307 307 307 310 316 322 326 327 331 336 340 342 341 342 342 341 341 342 343 342 342 341 343 342 342 342 340 340 340 340 341 339 338 338 336 335
303 306 305 306 303 303 303 304 306 307 307 307 312 317 323 326 327 333 335 341 340 341 340 340 341 342 342 341 342 341 339 338 338 338 340 339 339 340 339 337 336 335 334
302 302 305 305 305 305 304 303 303 305 306 306 306 308 313 320 325 327 328 332 338 339 340 340 340 340 340 340 341 341 339 337 337 337 337 340 340 339 339 336 337 334 335
300 300 301 302 302 303 304 306 303 303 304 305 307 307 307 311 317 323 327 329 333 337 337 338 339 338 339 339 340 337 335 338 336 337 338 337 338 338 337 335 336 335 334
299 299 299 300 300 300 299 301 301 301 302 303 305 306 308 307 309 316 320 327 330 333 337 336 337 337 335 339 338 335 334 335 337 338 338 337 337 337 336 334 333 333 331
299 299 299 299 299 299 299 298 298 299 298 301 302 304 306 307 307 308 312 317 323 329 333 335 337 334 334 336 336 334 335 337 336 337 338 338 338 336 334 333 332 330 329
299 298 298 298 298 298 298 297 297 297 297 297 300 302 303 306 307 307 306 310 313 317 321 328 331 332 334 337 337 335 336 336 336 336 336 336 335 333 332 330 330 329 329
298 298 297 297 297 297 297 297 296 295 296 296 297 300 302 303 305 305 306 306 309 311 313 316 321 326 328 330 333 334 335 336 335 335 334 334 331 330 329 328 328 328 327
298 298 297 297 296 296 295 295 295 295 295 295 295 296 297 301 303 305 305 309 305 307 310 312 315 316 319 323 324 327 327 335 335 333 331 330 330 328 329 329 328 327 326
Wind_Speed
33 39 38 34 35 35 34 39 44 47 45 48 46 40 42 39 36 32 31 32 35 34 34 27 28 28 25 23 25 22 20 18 17 15 18 15 12 14 14 16 15 16 15
33 27 26 31 32 37 36 37 41 47 49 49 51 46 43 38 36 34 34 34 34 35 37 34 31 31 27 28 27 26 22 21 22 21 16 10 8 11 14 19 18 18 19
34 33 34 29 31 35 36 37 39 46 51 46 44 42 37 35 35 37 39 39 35 38 38 38 33 33 32 32 33 32 29 26 25 25 19 16 12 17 14 19 19 20 24
42 39 36 36 31 32 34 36 38 44 49 50 44 45 44 44 43 45 43 40 38 36 39 39 41 34 37 33 34 33 33 29 28 29 28 20 12 15 9 21 26 27 28
43 43 44 39 35 32 34 36 38 43 46 47 47 46 45 44 41 38 35 46 38 39 38 39 40 41 40 38 37 34 34 36 30 30 31 29 22 15 13 10 21 30 30
33 40 44 44 39 32 35 37 40 41 46 47 48 45 48 44 42 39 40 40 44 41 44 42 44 45 46 44 41 39 37 38 37 30 30 30 30 25 22 17 14 22 28
34 29 35 40 42 39 34 38 39 40 44 47 48 50 47 49 44 43 42 41 40 47 46 48 47 48 49 47 44 43 42 39 38 38 32 33 32 28 24 21 17 14 19
30 22 32 32 39 39 35 38 38 41 42 47 51 51 47 47 48 46 42 42 41 39 45 50 50 50 50 50 47 45 45 44 42 42 42 31 34 30 31 26 28 17 15
35 33 26 29 35 37 41 33 42 42 41 45 48 49 53 48 47 45 46 44 42 40 37 46 47 51 51 51 51 50 47 46 45 47 45 44 35 34 31 33 31 32 21
34 35 38 28 32 36 39 37 35 42 43 43 46 50 52 53 52 48 48 46 45 42 37 39 40 43 48 51 52 53 53 50 50 48 48 48 47 40 37 33 35 38 30
33 36 41 36 29 33 33 38 37 39 43 45 45 49 50 51 50 48 48 48 45 43 43 41 39 40 44 46 51 53 52 53 52 49 48 50 47 44 40 39 39 39 37
32 36 40 25 15 26 33 33 33 41 43 43 46 48 50 48 48 49 51 49 48 47 46 43 43 43 42 44 47 49 52 52 53 54 50 50 45 45 43 42 43 41 38
35 37 36 15 15 13 15 16 30 35 34 43 44 47 47 44 46 48 47 48 49 48 47 44 43 44 45 44 44 45 47 48 50 52 51 52 47 46 47 48 46 47 46
25 31 36 28 13 12 13 13 13 12 21 29 39 43 48 49 47 45 44 44 46 46 46 45 44 45 45 45 46 46 45 47 48 49 49 50 49 50 50 48 51 51 47
22 28 32 29 25 15 14 14 13 11 12 19 29 37 42 42 44 40 41 43 44 44 43 42 43 44 43 43 45 45 47 48 48 49 49 48 47 48 50 50 53 53 54
19 23 33 34 31 28 21 18 12 7 14 20 16 23 25 35 36 35 36 40 43 44 44 44 41 42 45 46 46 47 45 46 46 46 47 48 48 48 49 52 53 51 55
16 17 22 35 35 33 24 26 26 18 8 5 17 18 21 23 30 33 33 35 37 37 39 40 41 43 43 45 45 47 48 48 46 44 45 47 50 51 51 50 51 52 47
17 19 15 26 31 34 31 24 25 29 24 17 7 10 19 23 21 22 30 33 32 36 39 39 41 42 43 45 45 45 46 49 48 43 43 45 47 50 51 49 50 51 49
23 19 19 16 25 32 34 32 28 27 30 31 23 17 5 12 24 22 18 26 31 33 37 39 41 44 46 46 44 42 43 47 49 48 45 42 47 46 47 46 49 51 49
20 22 20 18 19 21 26 32 31 32 29 28 28 26 21 10 5 20 26 23 25 31 33 38 39 42 45 46 45 42 41 44 47 47 49 48 44 42 42 43 48 49 49
20 19 18 16 15 17 19 20 27 26 28 27 23 23 26 23 15 4 14 26 25 25 34 37 39 42 42 42 42 37 39 44 44 47 47 47 47 42 38 40 43 42 44
21 19 18 18 17 17 19 17 19 22 22 22 24 22 22 25 24 18 10 11 27 29 28 35 39 42 40 41 42 36 37 39 45 46 46 44 42 41 37 37 36 40 41
20 20 20 19 19 18 19 19 20 19 20 21 21 23 21 20 23 25 24 17 6 23 32 30 35 42 37 41 41 34 35 39 41 41 41 38 38 40 36 39 37 41 41
19 19 20 20 20 20 19 17 19 22 20 20 21 19 21 21 19 21 26 24 23 16 12 25 28 35 36 38 39 37 38 41 45 42 38 38 39 40 38 41 39 41 41
19 18 18 20 20 20 19 18 18 19 20 20 17 19 18 17 18 16 19 24 22 24 24 16 18 30 35 37 41 42 43 46 47 45 47 44 43 44 43 43 44 44 44
16 17 18 19 20 19 21 20 20 19 19 20 20 18 19 16 16 17 16 12 18 20 20 22 16 14 19 30 35 42 42 45 47 48 53 48 45 46 46 47 45 45 45
Wind_Direction
249 242 244 235 232 226 216 209 206 205 203 199 196 199 200 204 202 207 209 214 211 208 211 199 203 204 199 199 200 197 198 199 196 196 188 208 207 203 198 196 211 216 219
251 247 234 234 232 228 216 211 210 206 204 203 202 200 201 203 207 206 212 212 217 207 214 202 211 211 199 202 206 197 197 199 201 203 193 195 193 218 222 218 220 219 220
253 252 246 238 230 229 216 212 211 210 207 207 207 204 205 206 207 209 210 212 217 209 215 215 204 216 205 210 208 212 195 200 204 204 203 200 213 193 221 222 216 214 225
245 251 255 245 228 230 215 214 212 211 213 207 207 204 201 203 209 209 212 211 212 214 215 218 212 214 220 207 219 218 214 200 204 210 212 217 211 184 183 233 225 218 223
242 245 245 249 242 224 215 212 210 212 209 213 206 207 205 207 209 210 217 219 215 213 215 219 220 212 223 218 219 215 216 211 204 209 215 224 227 221 224 212 230 223 226
247 240 243 242 243 233 211 208 210 211 211 209 210 209 207 206 206 213 214 223 215 215 219 218 222 222 221 227 219 225 225 216 214 211 217 218 222 227 233 241 219 229 228
252 255 241 237 239 237 215 206 211 212 210 210 213 208 212 207 208 211 212 212 223 211 220 220 222 224 224 227 226 222 226 229 217 215 216 220 223 226 229 230 220 202 232
336 274 259 259 237 240 237 209 213 214 211 210 213 216 211 213 209 215 214 219 222 227 212 226 227 227 229 227 225 225 229 230 231 223 222 220 223 227 226 223 228 199 219
334 322 303 253 250 237 233 234 210 213 214 214 213 213 213 213 216 213 219 227 225 232 226 226 229 229 229 231 231 230 229 228 233 234 230 228 224 226 227 225 234 214 208
328 322 316 291 247 240 230 226 220 213 215 216 215 216 220 217 217 220 219 221 230 227 230 226 231 231 233 231 232 235 236 234 235 237 237 235 235 226 227 226 230 236 222
326 316 310 302 268 244 238 229 226 219 216 215 217 216 220 221 218 221 223 227 227 223 221 233 234 232 230 232 230 235 233 235 235 234 235 240 236 230 226 226 228 231 228
325 317 312 308 283 262 240 234 224 219 218 219 217 218 224 219 220 227 228 230 228 227 229 225 233 234 233 232 232 232 232 233 234 238 231 237 233 233 228 226 225 223 224
328 328 343 318 321 305 273 266 231 228 226 220 220 219 220 220 225 231 229 227 232 234 231 228 223 232 240 236 236 236 235 235 238 235 234 238 230 231 232 227 225 226 228
333 343 349 352 350 346 339 318 291 266 234 228 221 220 225 227 230 231 227 228 230 234 233 227 227 228 232 234 238 240 237 238 238 235 237 236 233 235 234 229 229 228 225
358 358 1 10 15 13 4 358 329 279 257 242 226 222 227 236 228 224 224 226 228 226 230 226 229 229 226 229 233 234 239 241 240 239 239 241 239 240 236 236 235 234 232
344 2 12 14 12 11 15 7 4 318 253 238 252 234 220 228 224 223 226 229 226 227 229 232 231 230 232 235 236 234 233 236 235 235 238 241 239 238 235 237 240 242 238
350 349 4 17 16 11 9 14 21 28 53 226 236 230 224 219 227 227 224 227 230 231 232 230 229 231 234 236 236 233 230 234 238 238 240 242 242 240 234 232 238 243 252
353 350 349 15 14 13 13 13 25 31 39 46 67 219 227 222 219 227 231 230 229 231 234 233 229 232 235 237 238 230 228 230 235 242 241 245 246 244 237 233 234 237 241
1 350 347 340 6 8 10 15 21 27 31 34 33 41 36 242 232 221 235 237 235 233 236 236 232 231 235 238 235 230 231 234 238 240 243 245 245 245 243 238 233 233 237
354 349 350 357 351 345 353 7 14 16 16 21 25 26 32 33 260 238 228 224 238 238 237 238 238 239 240 239 236 234 233 235 237 239 243 244 247 249 246 239 229 230 234
343 345 345 347 353 351 340 349 4 360 5 4 8 16 18 27 30 335 245 232 228 236 239 239 239 241 240 238 241 237 236 235 238 240 240 243 244 247 248 240 233 232 232
342 347 348 343 343 344 343 341 347 354 337 350 360 360 7 13 23 27 11 250 231 231 234 243 241 244 242 238 240 241 237 241 237 238 241 242 243 245 242 236 229 230 229
341 345 347 344 345 347 347 339 331 328 328 331 334 352 355 1 11 19 16 17 315 241 237 236 236 248 246 240 245 244 240 239 240 241 240 242 241 242 235 228 224 224 223
338 341 341 341 342 345 343 343 334 332 330 316 319 324 338 354 0 8 10 8 16 2 303 253 243 239 244 245 246 243 234 233 237 237 235 234 234 235 223 220 219 222 224
332 334 335 333 332 336 339 340 336 335 332 327 319 316 309 329 353 2 359 0 7 3 1 330 283 258 249 247 245 246 240 234 233 231 231 228 227 220 214 212 217 219 222
325 327 327 327 328 331 333 334 335 337 334 330 326 313 307 309 321 343 345 351 351 349 355 359 341 310 278 259 251 244 241 241 237 228 227 222 219 215 212 212 213 218 221